Millville, NJ

6:48 AM EDT on October 21, 2017 (GMT -0400)
Millville Municipal

Weather History for KMIV - December, 2012

Change the Weather History Date:

Friday, December 7, 2012

  Actual Average Record
Temperature  
Mean Temperature 38 °F -  
Max Temperature 48 °F 48 °F 75 °F (1998)
Min Temperature 27 °F 30 °F 5 °F (2002)
Degree Days  
Heating Degree Days 28    
Moisture  
Dew Point 40 °F    
Average Humidity 94    
Maximum Humidity 100    
Minimum Humidity 82    
Precipitation  
Precipitation 0.37 in - - ()
Sea Level Pressure  
Sea Level Pressure 30.12 in    
Wind  
Wind Speed 0 mph (ESE)    
Max Wind Speed 4 mph    
Max Gust Speed -    
Visibility 8 miles    
Events Rain    
Averages and records for this station are not official NWS values.
T = Trace of Precipitation, MM = Missing Value Source: NWS Daily Summary

Daily Weather History Graph

Daily Weather History Graph

Search for Another Location

Airport or City:

Trip Planner

Search our weather history database for the weather conditions in past years. The results will help you decide how hot, cold, wet, or windy it might be!

Date:

Astronomy

Dec. 07, 2012 Rise Set
Actual Time 7:07 AM EST 4:36 PM EST
Civil Twilight 6:37 AM EST 5:06 PM EST
Nautical Twilight 6:03 AM EST 5:40 PM EST
Astronomical Twilight 5:31 AM EST 6:12 PM EST
Moon 12:25 AM EST (12/7) 12:30 PM EST (12/7)
Length of Visible Light 10h 29m
Length of Day
9h 29m
Last Quarter, 39% of the Moon is Illuminated
Dec 7
Last Quarter
Dec 13
New
Dec 20
First Quarter
Dec 28
Full
Jan 4
Last Quarter

Hourly Weather History & Observations

Time (EST) Temp. Windchill Dew Point Humidity Pressure Visibility Wind Dir Wind Speed Gust Speed Precip Events Conditions
12:54 AM 32.0 °F - 30.0 °F 92% 30.28 in 10.0 mi Calm Calm - N/A   Overcast
1:20 AM 28.4 °F - 26.6 °F 93% 30.28 in 10.0 mi Calm Calm - N/A   Scattered Clouds
1:54 AM 27.0 °F - 26.1 °F 96% 30.26 in 10.0 mi Calm Calm - N/A   Clear
2:54 AM 28.9 °F - 27.0 °F 92% 30.24 in 10.0 mi Calm Calm - N/A   Clear
3:54 AM 30.0 °F - 28.0 °F 92% 30.22 in 10.0 mi Calm Calm - N/A   Scattered Clouds
4:54 AM 30.9 °F - 28.9 °F 92% 30.21 in 10.0 mi Calm Calm - N/A   Mostly Cloudy
5:54 AM 32.0 °F - 30.0 °F 92% 30.21 in 10.0 mi Calm Calm - N/A   Mostly Cloudy
6:54 AM 32.0 °F - 30.0 °F 92% 30.21 in 10.0 mi Calm Calm - N/A   Mostly Cloudy
7:54 AM 35.1 °F - 32.0 °F 89% 30.20 in 10.0 mi Calm Calm - N/A   Overcast
8:54 AM 37.9 °F - 34.0 °F 86% 30.20 in 10.0 mi Calm Calm - N/A   Overcast
9:54 AM 39.9 °F - 35.1 °F 83% 30.20 in 10.0 mi Calm Calm - N/A   Overcast
10:54 AM 43.0 °F - 37.9 °F 82% 30.18 in 10.0 mi Calm Calm - 0.00 in   Overcast
11:54 AM 44.1 °F - 39.9 °F 85% 30.16 in 9.0 mi Calm Calm - 0.00 in Rain Light Rain
12:54 PM 45.0 °F - 43.0 °F 93% 30.12 in 10.0 mi Calm Calm - 0.02 in Rain Light Rain
1:54 PM 46.0 °F - 43.0 °F 89% 30.10 in 10.0 mi Calm Calm - 0.00 in   Overcast
2:13 PM 46.4 °F - 44.6 °F 93% 30.10 in 10.0 mi Calm Calm - N/A   Overcast
2:54 PM 46.0 °F - 44.1 °F 93% 30.09 in 10.0 mi Calm Calm - N/A   Overcast
3:54 PM 46.0 °F - 44.1 °F 93% 30.09 in 10.0 mi Calm Calm - N/A   Overcast
4:54 PM 46.0 °F - 45.0 °F 96% 30.08 in 10.0 mi Calm Calm - 0.00 in Rain Light Rain
5:54 PM 46.9 °F - 45.0 °F 93% 30.08 in 10.0 mi Calm Calm - 0.00 in   Overcast
6:54 PM 46.0 °F - 45.0 °F 96% 30.08 in 10.0 mi Calm Calm - N/A   Overcast
7:08 PM 46.4 °F - 46.4 °F 100% 30.07 in 10.0 mi Calm Calm - N/A   Overcast
8:07 PM 46.4 °F - 46.4 °F 100% 30.06 in 8.0 mi Calm Calm - 0.00 in Rain Light Rain
8:54 PM 46.9 °F - 46.0 °F 97% 30.05 in 6.0 mi Calm Calm - 0.01 in Rain Light Rain
9:21 PM 46.4 °F - 46.4 °F 100% 30.04 in 7.0 mi Calm Calm - 0.01 in   Overcast
9:32 PM 46.4 °F - 46.4 °F 100% 30.04 in 5.0 mi Calm Calm - 0.01 in Rain Light Rain
9:50 PM 46.4 °F - 46.4 °F 100% 30.04 in 1.8 mi Calm Calm - 0.05 in Rain Heavy Rain
9:54 PM 46.9 °F - 46.0 °F 97% 30.04 in 1.5 mi Calm Calm - 0.07 in Rain Heavy Rain
10:28 PM 46.4 °F - 46.4 °F 100% 30.03 in 2.5 mi Calm Calm - 0.11 in Rain Rain
10:46 PM 46.4 °F 45.2 °F 46.4 °F 100% 30.02 in 2.0 mi ESE 3.5 mph - 0.16 in Rain Rain
10:54 PM 48.0 °F - 46.9 °F 96% 30.01 in 3.0 mi Calm Calm - 0.18 in Rain Rain
11:03 PM 48.2 °F - 46.4 °F 93% 30.02 in 4.0 mi Calm Calm - 0.00 in Rain Light Rain
11:38 PM 48.2 °F - 46.4 °F 93% 30.00 in 4.0 mi Calm Calm - 0.04 in Rain Rain
11:54 PM 48.0 °F - 48.0 °F 100% 29.99 in 3.0 mi ESE 3.5 mph - 0.09 in Rain Rain